BUGSAT-1 (TITA) (40014 NORAD) Tracking and Keplerian Element Data

This shows tracking and keplerian element data for the satellite.

Feedback or suggestion? Click here.




ElementValue
Catalog40014
NameBUGSAT-1 (TITA)
Epoch Orbit58050
Epoch Day34.76504541
Epoch Year2025
RAAN94.5007
Inclination98.0935
Eccentricity0.0033568
Argument of Perigee75.2649
Mean Anonmoly285.2294
Mean Motion15.08781662
Decay Rate8.563E-05
L11 40014U 14033E 25034.76504541 .00008563 00000+0 54205-3 0 9996
L22 40014 98.0935 94.5007 0033568 75.2649 285.2294 15.08781662580502



Live tracking and technical data element details for BUGSAT-1 (TITA) (NORAD 40014). BUGSAT-1 (TITA) can be tracked NOW for your location showing map with azimuth and elevation plus other details from your city location.







IsCatalogInMostPopularTable: catalog: 40014, numindb: 600
Update: records affected: 1



GetName: 40014 BUGSAT-1 (TITA)

Hit Count: updated at: Sat, 24 May 2025 17:24:32 GMT